• In Moldova, Republic
  • List of Countries
  • For 7 days
  • Water Temperature
  • Satellite Maps
  • Weather Map
  • Weather Widgets
  • user-avatar
    Login

    Hourly Weather Korçe

    Today, 22 August, Tuesday

    Time Temperature Precipitation Wind Pressure Humidity
    00:00 +15°C° 0 mm 2 mps 666 mmHg 77%
    01:00 +14°C° 0 mm 2 mps 666 mmHg 77%
    02:00 +14°C° 0 mm 2 mps 666 mmHg 77%
    03:00 +13°C° 0 mm 2 mps 666 mmHg 76%
    04:00 +13°C° 0 mm 2 mps 666 mmHg 76%
    05:00 +14°C° 0 mm 2 mps 666 mmHg 71%
    06:00 +15°C° 0 mm 2 mps 667 mmHg 66%
    07:00 +16°C° 0 mm 2 mps 667 mmHg 61%
    08:00 +18°C° 0 mm 2 mps 668 mmHg 54%
    09:00 +19°C° 0 mm 2 mps 668 mmHg 48%
    10:00 +21°C° 0 mm 2 mps 669 mmHg 41%
    11:00 +23°C° 0 mm 2 mps 669 mmHg 38%
    12:00 +24°C° 0 mm 2 mps 669 mmHg 35%
    13:00 +25°C° 0 mm 2 mps 669 mmHg 32%
    14:00 +25°C° 0 mm 3 mps 669 mmHg 32%
    15:00 +25°C° 0 mm 3 mps 668 mmHg 32%
    16:00 +25°C° 0 mm 3 mps 668 mmHg 31%
    17:00 +22°C° 0 mm 3 mps 668 mmHg 36%
    18:00 +19°C° 0 mm 2 mps 667 mmHg 41%
    19:00 +17°C° 0 mm 2 mps 667 mmHg 46%
    20:00 +16°C° 0 mm 2 mps 667 mmHg 46%
    21:00 +15°C° 0 mm 2 mps 667 mmHg 47%
    22:00 +14°C° 0 mm 1 mps 667 mmHg 48%
    23:00 +14°C° 0 mm 1 mps 667 mmHg 46%

    Tomorrow, 23 August, Wednesday

    Time Temperature Precipitation Wind Pressure Humidity
    00:00 +14°C° 0 mm 1 mps 667 mmHg 44%
    01:00 +13°C° 0 mm 1 mps 667 mmHg 42%
    02:00 +13°C° 0 mm 1 mps 667 mmHg 42%
    03:00 +13°C° 0 mm 1 mps 667 mmHg 41%
    04:00 +13°C° 0 mm 1 mps 667 mmHg 41%
    05:00 +14°C° 0 mm 1 mps 668 mmHg 40%
    06:00 +16°C° 0 mm 1 mps 668 mmHg 38%
    07:00 +19°C° 0 mm 1 mps 669 mmHg 37%
    08:00 +21°C° 0 mm 1 mps 670 mmHg 36%
    09:00 +23°C° 0 mm 1 mps 670 mmHg 35%
    10:00 +25°C° 0 mm 1 mps 671 mmHg 34%
    11:00 +25°C° 0 mm 1 mps 671 mmHg 33%
    12:00 +26°C° 0 mm 2 mps 671 mmHg 32%
    13:00 +26°C° 0 mm 2 mps 671 mmHg 31%
    14:00 +26°C° 0 mm 3 mps 670 mmHg 31%
    15:00 +26°C° 0 mm 3 mps 670 mmHg 32%
    16:00 +25°C° 0 mm 3 mps 670 mmHg 33%
    17:00 +23°C° 0 mm 2 mps 670 mmHg 38%
    18:00 +20°C° 0 mm 2 mps 669 mmHg 43%
    19:00 +18°C° 0 mm 1 mps 669 mmHg 48%
    20:00 +18°C° 0 mm 1 mps 669 mmHg 49%
    21:00 +16°C° 0 mm 1 mps 669 mmHg 49%
    22:00 +15°C° 0 mm 1 mps 669 mmHg 50%
    23:00 +15°C° 0 mm 1 mps 669 mmHg 50%

    Day after tomorrow, 24 August, Thursday

    Time Temperature Precipitation Wind Pressure Humidity
    00:00 +15°C° 0 mm 1 mps 669 mmHg 49%
    01:00 +14°C° 0 mm 1 mps 669 mmHg 49%
    02:00 +14°C° 0 mm 1 mps 669 mmHg 49%
    03:00 +14°C° 0 mm 1 mps 669 mmHg 49%
    04:00 +14°C° 0 mm 1 mps 669 mmHg 49%
    05:00 +15°C° 0 mm 1 mps 669 mmHg 46%
    06:00 +18°C° 0 mm 1 mps 670 mmHg 43%
    07:00 +20°C° 0 mm 1 mps 671 mmHg 40%
    08:00 +22°C° 0 mm 1 mps 671 mmHg 36%
    09:00 +24°C° 0 mm 1 mps 672 mmHg 32%
    10:00 +26°C° 0 mm 1 mps 673 mmHg 28%
    11:00 +27°C° 0 mm 1 mps 673 mmHg 26%
    12:00 +28°C° 0 mm 2 mps 672 mmHg 25%
    13:00 +29°C° 0 mm 2 mps 672 mmHg 23%
    14:00 +28°C° 0 mm 2 mps 672 mmHg 24%
    15:00 +28°C° 0 mm 3 mps 672 mmHg 24%
    16:00 +28°C° 0 mm 3 mps 671 mmHg 25%
    17:00 +25°C° 0 mm 2 mps 671 mmHg 30%
    18:00 +21°C° 0 mm 2 mps 671 mmHg 35%
    19:00 +20°C° 0 mm 1 mps 670 mmHg 40%
    20:00 +19°C° 0 mm 1 mps 670 mmHg 40%
    21:00 +19°C° 0 mm 1 mps 670 mmHg 41%
    22:00 +18°C° 0 mm 1 mps 671 mmHg 41%
    23:00 +18°C° 0 mm 1 mps 670 mmHg 41%

    25 August, Friday

    Time Temperature Precipitation Wind Pressure Humidity
    00:00 +16°C° 0 mm 2 mps 670 mmHg 41%
    01:00 +16°C° 0 mm 2 mps 670 mmHg 41%
    02:00 +16°C° 0 mm 2 mps 670 mmHg 41%
    03:00 +16°C° 0 mm 2 mps 670 mmHg 41%
    04:00 +15°C° 0 mm 2 mps 670 mmHg 42%
    05:00 +17°C° 0 mm 2 mps 670 mmHg 40%
    06:00 +18°C° 0 mm 2 mps 671 mmHg 38%
    07:00 +20°C° 0 mm 2 mps 672 mmHg 37%
    08:00 +23°C° 0 mm 2 mps 672 mmHg 33%
    09:00 +25°C° 0 mm 2 mps 673 mmHg 29%
    10:00 +27°C° 0 mm 2 mps 673 mmHg 25%
    11:00 +28°C° 0 mm 2 mps 673 mmHg 24%
    12:00 +29°C° 0 mm 2 mps 673 mmHg 22%
    13:00 +30°C° 0 mm 2 mps 673 mmHg 21%
    14:00 +29°C° 0 mm 2 mps 672 mmHg 22%
    15:00 +29°C° 0 mm 2 mps 672 mmHg 23%
    16:00 +29°C° 0 mm 2 mps 672 mmHg 24%
    17:00 +26°C° 0 mm 2 mps 671 mmHg 29%
    18:00 +23°C° 0 mm 2 mps 671 mmHg 35%
    19:00 +21°C° 0 mm 1 mps 670 mmHg 41%
    20:00 +20°C° 0 mm 1 mps 670 mmHg 42%
    21:00 +19°C° 0 mm 1 mps 670 mmHg 44%
    22:00 +18°C° 0 mm 1 mps 670 mmHg 45%
    23:00 +17°C° 0 mm 2 mps 670 mmHg 46%

    26 August, Saturday

    Time Temperature Precipitation Wind Pressure Humidity
    00:00 +16°C° 0 mm 2 mps 670 mmHg 46%
    01:00 +16°C° 0 mm 2 mps 670 mmHg 47%
    02:00 +16°C° 0 mm 2 mps 669 mmHg 48%
    03:00 +15°C° 0 mm 2 mps 669 mmHg 49%
    04:00 +15°C° 0 mm 2 mps 669 mmHg 49%
    05:00 +17°C° 0 mm 2 mps 670 mmHg 46%
    06:00 +19°C° 0 mm 1 mps 670 mmHg 43%
    07:00 +21°C° 0 mm 1 mps 670 mmHg 41%
    08:00 +23°C° 0 mm 1 mps 671 mmHg 35%
    09:00 +25°C° 0 mm 1 mps 671 mmHg 30%
    10:00 +28°C° 0 mm 1 mps 672 mmHg 25%
    11:00 +29°C° 0 mm 2 mps 672 mmHg 23%
    12:00 +29°C° 0 mm 2 mps 672 mmHg 22%
    13:00 +30°C° 0 mm 2 mps 672 mmHg 20%
    14:00 +30°C° 0 mm 2 mps 671 mmHg 21%
    15:00 +30°C° 0 mm 2 mps 671 mmHg 22%
    16:00 +29°C° 0 mm 2 mps 671 mmHg 23%
    17:00 +26°C° 0 mm 2 mps 670 mmHg 30%
    18:00 +24°C° 0 mm 1 mps 670 mmHg 36%
    19:00 +21°C° 0 mm 1 mps 669 mmHg 42%
    20:00 +20°C° 0 mm 1 mps 669 mmHg 43%
    21:00 +19°C° 0 mm 1 mps 669 mmHg 44%
    22:00 +19°C° 0 mm 1 mps 669 mmHg 45%
    23:00 +18°C° 0 mm 1 mps 669 mmHg 46%

    27 August, Sunday

    Time Temperature Precipitation Wind Pressure Humidity
    00:00 +18°C° 0 mm 1 mps 669 mmHg 46%
    01:00 +18°C° 0 mm 1 mps 668 mmHg 47%
    02:00 +16°C° 0 mm 1 mps 668 mmHg 47%
    03:00 +16°C° 0 mm 1 mps 668 mmHg 48%
    04:00 +16°C° 0 mm 1 mps 668 mmHg 48%
    05:00 +18°C° 0 mm 1 mps 669 mmHg 45%
    06:00 +20°C° 0 mm 1 mps 669 mmHg 42%
    07:00 +22°C° 0 mm 1 mps 669 mmHg 40%
    08:00 +24°C° 0 mm 1 mps 670 mmHg 34%
    09:00 +26°C° 0 mm 1 mps 670 mmHg 29%
    10:00 +29°C° 0 mm 1 mps 671 mmHg 23%
    11:00 +30°C° 0 mm 2 mps 671 mmHg 22%
    12:00 +30°C° 0 mm 2 mps 671 mmHg 20%
    13:00 +31°C° 0 mm 2 mps 670 mmHg 19%
    14:00 +31°C° 0 mm 2 mps 670 mmHg 20%
    15:00 +30°C° 0 mm 2 mps 670 mmHg 21%
    16:00 +30°C° 0 mm 2 mps 670 mmHg 22%
    17:00 +27°C° 0 mm 2 mps 669 mmHg 28%
    18:00 +24°C° 0 mm 2 mps 668 mmHg 34%
    19:00 +21°C° 0 mm 1 mps 668 mmHg 40%
    20:00 +21°C° 0 mm 1 mps 668 mmHg 41%
    21:00 +20°C° 0 mm 1 mps 668 mmHg 42%
    22:00 +19°C° 0 mm 1 mps 668 mmHg 43%
    23:00 +19°C° 0 mm 1 mps 668 mmHg 43%
    Show more